Location: Unspecified
(0.0000°N, 0.0000°E)
Time: 08:41:31
(UTC+00:00)

CZ-4C DEB - Pass Details

Date: 14 March 2026
Orbit: 805 x 1381 km, 63.4° (Epoch: 18 April)

Event Time Altitude Azimuth Distance (km) Brightness Sun altitude
Rises 18:53:33 0° 353° (N) 4,201 ? -11.1°
Reaches altitude 10° 18:56:29 10° 360° (N) 3,298 ? -11.8°
Maximum altitude 19:04:04 42° 68° (ENE) 1,864 ? -13.7°
Drops below altitude 10° 19:11:57 10° 135° (SE) 3,447 ? -15.7°
Sets 19:15:03 0° 142° (SE) 4,407 ? -16.5°
